Simultaneous Nadir Overpasses (SNOs) Predictions

Prediction of SNOs between GOES-17 and AQUA Satellite Orbit:

Table of predicted SNOs for the next 14.0 days since TLE Epoch: 3/2/2024
Index Date Time (GOES-17) GOES-17 Lat,Lon AQUA Lat,Lon Distance(km) Time Diff (sec)
1 03/02/2024 20:50:30 -0.01,-104.68 0.63,-101.57 352.63 80
2 03/03/2024 09:10:51 0.01,-104.70 0.40,-106.50 204.94 80
3 03/05/2024 08:52:28 0.02,-104.70 -0.41,-102.66 231.68 80
4 03/05/2024 21:12:58 -0.02,-104.67 -0.63,-107.62 335.05 80
5 03/07/2024 20:59:54 -0.02,-104.67 0.17,-103.78 101.85 80
6 03/08/2024 09:20:13 0.02,-104.69 0.90,-108.70 455.39 80
7 03/10/2024 09:04:30 0.02,-104.69 0.05,-104.85 17.93 80
8 03/12/2024 08:46:05 0.02,-104.70 -0.77,-101.00 420.02 80
9 03/12/2024 21:06:33 -0.02,-104.67 -0.29,-105.96 146.36 80
10 03/14/2024 20:53:27 -0.03,-104.67 0.53,-102.11 292.04 80
11 03/15/2024 09:13:47 0.03,-104.70 0.51,-107.03 264.85 80
